TimeEDT,TemperatureF,Dew PointF,Humidity,Sea Level PressureIn,VisibilityMPH,Wind Direction,Wind SpeedMPH,Gust SpeedMPH,PrecipitationIn,Events,Conditions,WindDirDegrees,DateUTC
12:58 AM,75.7,74.5,96,30.25,10.0,SSE,2.3,-,N/A,,Clear,160,2013-07-06 04:58:00
1:58 AM,74.7,74.3,99,30.23,10.0,SSE,2.3,-,N/A,,Clear,160,2013-07-06 05:58:00
2:58 AM,73.9,73.8,99,30.22,10.0,SSE,2.3,-,N/A,,Clear,150,2013-07-06 06:58:00
3:58 AM,72.9,72.7,99,30.22,10.0,Calm,Calm,-,N/A,,Clear,0,2013-07-06 07:58:00
4:22 AM,73.4,73.4,100,30.22,9.0,Calm,Calm,-,N/A,,Clear,0,2013-07-06 08:22:00
4:40 AM,73.4,71.6,94,30.22,9.0,Calm,Calm,-,N/A,,Clear,0,2013-07-06 08:40:00
4:58 AM,72.3,72.0,99,30.22,9.0,East,2.3,-,N/A,,Clear,90,2013-07-06 08:58:00
5:24 AM,71.6,71.6,100,30.23,10.0,East,2.3,-,N/A,,Clear,80,2013-07-06 09:24:00
5:44 AM,71.6,71.6,100,30.22,10.0,East,3.5,-,N/A,,Partly Cloudy,100,2013-07-06 09:44:00
5:48 AM,71.6,71.6,100,30.22,9.0,East,4.6,-,N/A,,Scattered Clouds,100,2013-07-06 09:48:00
5:52 AM,71.6,71.6,100,30.22,6.0,East,3.5,-,N/A,,Scattered Clouds,100,2013-07-06 09:52:00
5:54 AM,71.6,71.6,100,30.22,5.0,East,3.5,-,N/A,,Mostly Cloudy,100,2013-07-06 09:54:00
5:58 AM,71.8,71.4,99,30.22,3.0,ESE,3.5,-,N/A,,Mostly Cloudy,110,2013-07-06 09:58:00
6:00 AM,71.6,71.6,100,30.22,2.5,Variable,2.3,-,N/A,,Mostly Cloudy,0,2013-07-06 10:00:00
6:04 AM,71.6,71.6,100,30.23,1.5,SE,2.3,-,N/A,,Mostly Cloudy,130,2013-07-06 10:04:00
6:06 AM,71.6,71.6,100,30.23,1.2,ESE,2.3,-,N/A,,Mostly Cloudy,120,2013-07-06 10:06:00
6:08 AM,71.6,71.6,100,30.23,0.8,ESE,3.5,-,N/A,,Mostly Cloudy,120,2013-07-06 10:08:00
6:10 AM,71.6,71.6,100,30.23,0.8,ESE,2.3,-,N/A,,Overcast,110,2013-07-06 10:10:00
6:12 AM,71.6,71.6,100,30.23,0.5,ESE,2.3,-,N/A,Fog,Fog,110,2013-07-06 10:12:00
6:40 AM,71.6,71.6,100,30.24,0.5,SE,2.3,-,N/A,Fog,Fog,130,2013-07-06 10:40:00
6:46 AM,71.6,71.6,100,30.24,0.5,ESE,2.3,-,N/A,Fog,Fog,110,2013-07-06 10:46:00
6:48 AM,71.6,71.6,100,30.24,0.2,Variable,2.3,-,N/A,Fog,Fog,0,2013-07-06 10:48:00
6:58 AM,72.3,72.0,99,30.25,0.5,Calm,Calm,-,N/A,Fog,Fog,0,2013-07-06 10:58:00
7:04 AM,71.6,71.6,100,30.24,0.5,East,1.2,-,N/A,Fog,Fog,80,2013-07-06 11:04:00
7:20 AM,73.4,71.6,94,30.24,0.8,Calm,Calm,-,N/A,,Overcast,0,2013-07-06 11:20:00
7:26 AM,73.4,73.4,100,30.24,1.0,Calm,Calm,-,N/A,,Overcast,0,2013-07-06 11:26:00
7:30 AM,73.4,73.4,100,30.25,1.2,Calm,Calm,-,N/A,,Overcast,0,2013-07-06 11:30:00
7:32 AM,73.4,73.4,100,30.25,1.5,Calm,Calm,-,N/A,,Overcast,0,2013-07-06 11:32:00
7:36 AM,73.4,73.4,100,30.25,2.0,Calm,Calm,-,N/A,,Overcast,0,2013-07-06 11:36:00
7:42 AM,73.4,73.4,100,30.25,2.0,ESE,2.3,-,N/A,,Overcast,110,2013-07-06 11:42:00
7:52 AM,73.4,73.4,100,30.25,3.0,SSE,2.3,-,N/A,,Overcast,150,2013-07-06 11:52:00
7:58 AM,73.2,73.2,100,30.25,6.0,South,1.2,-,N/A,,Overcast,170,2013-07-06 11:58:00
8:11 AM,73.4,73.4,100,30.25,10.0,Calm,Calm,-,N/A,Rain,Light Rain,0,2013-07-06 12:11:00
8:15 AM,73.4,73.4,100,30.26,10.0,SSE,2.3,-,N/A,Rain,Light Rain,150,2013-07-06 12:15:00
8:29 AM,75.2,75.2,100,30.26,10.0,Variable,3.5,-,N/A,Rain,Light Rain,0,2013-07-06 12:29:00
8:39 AM,77.0,77.0,100,30.26,10.0,SSE,3.5,-,N/A,Rain,Light Rain,160,2013-07-06 12:39:00
8:47 AM,77.0,77.0,100,30.26,10.0,WSW,1.2,-,N/A,,Light Drizzle,250,2013-07-06 12:47:00
8:58 AM,77.2,76.8,99,30.27,10.0,Variable,2.3,-,0.00,Rain,Light Rain,0,2013-07-06 12:58:00
9:06 AM,78.8,77.0,94,30.26,10.0,Calm,Calm,-,N/A,,Scattered Clouds,0,2013-07-06 13:06:00
9:09 AM,78.8,77.0,94,30.26,10.0,Variable,2.3,-,N/A,Rain,Light Rain,0,2013-07-06 13:09:00
9:17 AM,78.8,77.0,94,30.26,10.0,Variable,4.6,-,N/A,Rain,Light Rain,0,2013-07-06 13:17:00
9:19 AM,80.6,77.0,89,30.26,10.0,WSW,4.6,-,N/A,,Mostly Cloudy,240,2013-07-06 13:19:00
9:33 AM,80.6,75.2,84,30.25,10.0,Variable,5.8,-,N/A,,Scattered Clouds,0,2013-07-06 13:33:00
9:58 AM,81.1,75.2,82,30.25,10.0,South,5.8,-,0.00,,Clear,180,2013-07-06 13:58:00
10:58 AM,83.8,73.2,70,30.25,10.0,SSE,8.1,-,N/A,,Clear,160,2013-07-06 14:58:00
11:33 AM,82.4,73.4,74,30.25,10.0,South,5.8,-,N/A,Rain,Light Rain,170,2013-07-06 15:33:00
11:43 AM,82.4,73.4,74,30.25,10.0,SSE,5.8,-,N/A,,Scattered Clouds,160,2013-07-06 15:43:00
11:53 AM,82.4,73.4,74,30.25,10.0,Variable,4.6,-,N/A,Rain,Light Rain,0,2013-07-06 15:53:00
11:58 AM,83.5,73.8,72,30.25,10.0,SE,6.9,-,0.00,Rain,Light Rain,130,2013-07-06 15:58:00
12:02 PM,84.2,73.4,70,30.25,10.0,SSE,6.9,-,N/A,,Partly Cloudy,160,2013-07-06 16:02:00
12:58 PM,86.4,71.8,62,30.23,10.0,South,8.1,-,0.00,,Partly Cloudy,170,2013-07-06 16:58:00
1:58 PM,87.6,72.1,60,30.21,10.0,SSE,10.4,-,N/A,,Clear,150,2013-07-06 17:58:00
2:58 PM,89.2,70.7,54,30.19,10.0,South,10.4,-,N/A,,Clear,180,2013-07-06 18:58:00
3:58 PM,87.8,70.9,57,30.17,10.0,SSE,9.2,-,N/A,,Clear,160,2013-07-06 19:58:00
4:58 PM,85.6,73.9,68,30.15,10.0,ESE,6.9,-,N/A,,Partly Cloudy,110,2013-07-06 20:58:00
5:08 PM,86.0,73.4,66,30.15,10.0,SE,9.2,16.1,N/A,Rain,Light Rain,140,2013-07-06 21:08:00
5:23 PM,82.4,75.2,79,30.15,10.0,SE,8.1,-,N/A,,Partly Cloudy,140,2013-07-06 21:23:00
5:58 PM,84.9,73.9,69,30.14,10.0,SSE,10.4,-,0.00,,Clear,150,2013-07-06 21:58:00
6:58 PM,85.6,69.8,59,30.14,10.0,South,10.4,20.7,N/A,,Clear,170,2013-07-06 22:58:00
7:58 PM,83.1,69.4,63,30.17,10.0,South,9.2,-,N/A,,Clear,170,2013-07-06 23:58:00
8:58 PM,80.8,69.1,67,30.17,10.0,South,4.6,-,N/A,,Clear,180,2013-07-07 00:58:00
9:58 PM,79.2,69.3,72,30.19,10.0,South,6.9,-,N/A,,Clear,170,2013-07-07 01:58:00
10:58 PM,77.5,70.0,77,30.20,10.0,South,4.6,-,N/A,,Clear,170,2013-07-07 02:58:00
11:58 PM,75.7,71.1,85,30.20,10.0,South,3.5,-,N/A,,Clear,170,2013-07-07 03:58:00